Location: Unspecified
(0.0000°N, 0.0000°E)
Time: 22:45:12
(UTC+00:00)

Transit 2A - All Passes

Search period start: 01 October 2020 00:00
Search period end: 11 October 2020 00:00
Orbit: 592 x 967 km, 66.7° (Epoch: 01 October)

Date Brightness Start Highest point End Pass type
(mag) Time Alt. Az. Time Alt. Az. Time Alt. Az.
01 Oct - 04:46:55 10° SE 04:49:19 13° ESE 04:51:48 10° E visible
01 Oct - 06:26:44 10° SW 06:32:08 48° WNW 06:38:01 10° N daylight
01 Oct - 17:20:28 10° N 17:24:58 32° ENE 17:29:06 10° SE daylight
01 Oct - 19:06:02 10° W 19:07:43 12° WSW 19:09:22 10° SW visible
02 Oct - 05:52:24 10° SSW 05:58:00 79° WNW 06:04:07 10° NNE daylight
02 Oct - 16:47:17 10° NNE 16:50:46 19° ENE 16:54:03 10° ESE daylight
02 Oct - 18:30:01 10° WNW 18:33:40 21° WSW 18:37:07 10° SSW visible
03 Oct - 05:18:22 10° S 05:23:54 65° ESE 05:29:57 10° NNE visible
03 Oct - 16:15:41 10° ENE 16:16:33 10° ENE 16:17:25 10° ENE daylight
03 Oct - 17:55:04 10° NW 17:59:37 37° WSW 18:03:49 10° S daylight
04 Oct - 04:44:38 10° S 04:49:49 39° ESE 04:55:26 10° NE visible
04 Oct - 06:29:17 10° WSW 06:32:55 17° WNW 06:36:42 10° NNW daylight
04 Oct - 17:20:36 10° NNW 17:25:33 69° WSW 17:30:04 10° SSE daylight
05 Oct - 04:11:18 10° SSE 04:15:46 24° ESE 04:20:31 10° NE visible
05 Oct - 05:53:55 10° SW 05:58:43 27° WNW 06:03:49 10° NNW daylight
05 Oct - 16:46:30 10° NNW 16:51:27 66° ENE 16:55:57 10° SSE daylight
06 Oct - 03:38:40 10° SE 03:41:42 15° ESE 03:44:50 10° ENE visible
06 Oct - 05:19:09 10° SW 05:24:32 44° WNW 05:30:22 10° N visible
06 Oct - 16:12:44 10° N 16:17:18 36° ENE 16:21:31 10° SE daylight
07 Oct - 04:44:45 10° SSW 04:50:23 72° WNW 04:56:32 10° NNE visible
07 Oct - 15:39:27 10° NNE 15:43:08 21° ENE 15:46:35 10° ESE daylight
07 Oct - 17:22:40 10° WNW 17:25:59 19° WSW 17:29:08 10° SSW daylight
08 Oct - 04:10:39 10° SSW 04:16:17 72° ESE 04:22:25 10° NNE visible
08 Oct - 15:07:15 10° NE 15:08:55 12° ENE 15:10:32 10° E daylight
08 Oct - 16:47:35 10° NW 16:51:56 33° WSW 16:55:58 10° S daylight
09 Oct - 03:36:51 10° S 03:42:12 44° ESE 03:47:59 10° NE visible
09 Oct - 05:21:59 10° WSW 05:25:20 15° WNW 05:28:47 10° NNW visible
09 Oct - 16:13:02 10° NNW 16:17:52 60° WSW 16:22:18 10° S daylight
10 Oct - 03:03:24 10° SSE 03:08:08 27° ESE 03:13:10 10° NE visible
10 Oct - 04:46:26 10° WSW 04:51:07 25° WNW 04:56:04 10° NNW visible
10 Oct - 15:38:52 10° NNW 15:43:47 74° ENE 15:48:15 10° SSE daylight
